Dewpoint
63 68 70 70 69 70 70 71 72 71 71 71 71 71 72 72 71 71 71 72 72 72 72 72 71 70 69 69 69 69 69 69 69 68 68 68 68 67 67 67 67 67 67
63 68 70 70 70 70 70 71 72 72 71 71 71 71 72 71 71 72 72 72 72 72 71 71 71 70 69 70 68 69 69 70 69 69 68 67 67 67 66 66 66 66 65
62 69 69 70 70 70 70 71 72 72 72 71 71 71 72 71 72 72 72 72 71 71 71 71 70 69 69 68 69 69 68 68 68 68 67 67 67 66 67 67 66 66 66
60 68 68 70 70 69 69 70 72 72 72 72 71 71 71 72 72 71 71 71 70 70 70 70 69 69 68 68 69 69 68 68 65 66 64 63 64 67 67 67 66 66 66
60 66 69 70 70 69 69 70 71 72 72 72 72 72 72 72 71 70 70 70 70 70 70 69 68 68 68 68 69 68 68 66 65 66 63 62 65 66 66 66 67 66 67
59 69 69 69 69 69 69 68 70 71 72 72 72 72 72 71 70 70 70 70 70 71 70 69 68 68 68 68 68 68 67 65 66 65 64 65 65 66 66 66 66 66 67
67 70 69 69 69 69 69 68 69 70 71 71 71 72 71 70 70 70 69 70 69 69 69 69 68 68 68 68 68 67 66 64 64 65 65 66 67 66 65 65 66 67 67
65 71 70 70 70 70 70 69 69 69 70 71 71 71 70 70 69 69 69 69 69 69 69 68 68 68 68 68 68 67 65 64 63 62 65 66 67 66 66 67 65 67 67
64 66 71 70 70 70 70 69 69 68 69 70 71 71 70 69 69 69 69 68 69 69 69 68 68 68 68 68 67 66 65 65 65 61 64 66 66 67 67 66 67 67 66
61 65 66 70 69 70 70 69 69 68 68 69 70 70 70 69 69 69 69 68 69 68 68 68 68 68 67 67 66 65 64 64 65 65 65 65 67 67 66 66 66 66 65
45 61 64 66 69 70 70 70 69 69 68 68 69 69 69 69 68 68 67 67 68 68 68 68 67 67 67 67 66 65 65 65 63 65 67 67 67 66 66 66 66 65 64
32 35 61 64 65 66 66 69 69 69 68 68 68 69 69 68 67 65 65 66 67 67 68 67 67 67 66 66 66 65 65 64 65 66 66 66 67 66 65 65 65 64 63
22 30 35 55 64 65 65 66 67 67 67 67 67 68 68 66 67 65 66 66 66 66 67 67 67 66 65 64 65 65 64 65 61 65 66 65 66 65 65 64 63 62 62
25 28 33 38 43 64 64 64 65 65 66 66 67 66 68 67 66 65 66 65 65 65 64 64 65 64 64 64 64 63 64 65 64 65 66 64 65 65 64 63 62 62 62
27 30 31 35 38 44 63 64 64 63 65 65 66 67 68 66 65 66 64 64 63 64 63 63 63 63 63 63 63 64 64 64 64 65 65 64 64 65 65 63 63 63 62
31 37 40 43 42 41 41 50 63 65 64 66 66 67 68 66 66 65 64 63 62 62 62 63 62 63 63 64 64 63 64 64 65 65 65 64 64 65 65 64 63 63 62
36 41 45 44 46 48 48 40 44 63 64 65 66 67 68 67 66 65 63 63 61 60 61 62 63 63 63 64 63 64 63 64 64 64 64 64 64 65 65 64 64 64 63
40 42 44 45 46 48 50 49 42 39 62 64 65 66 67 67 67 66 63 62 61 61 62 62 63 62 62 62 62 62 63 63 63 64 64 64 64 64 63 64 64 64 63
39 41 41 44 46 49 49 50 50 42 41 62 64 65 67 66 67 66 63 62 61 61 61 62 61 62 61 61 61 61 62 62 63 63 63 63 64 64 63 63 62 62 62
39 40 39 40 42 44 45 47 50 45 39 45 63 63 66 66 66 66 63 63 62 61 61 62 61 62 62 61 60 60 61 62 62 62 62 62 63 63 63 62 61 61 61
37 38 38 38 39 40 41 43 46 48 41 39 61 63 64 66 66 66 64 63 62 60 61 62 62 62 62 61 61 61 61 61 62 62 62 62 62 62 62 63 62 62 61
36 37 36 37 38 38 39 41 43 46 48 38 46 61 64 66 66 66 64 62 62 60 61 62 62 61 61 61 59 57 56 57 59 61 61 61 61 62 62 62 62 62 62
35 35 35 36 36 37 38 39 41 45 48 44 36 57 61 64 66 65 65 63 62 61 61 62 62 61 60 60 60 57 54 52 56 59 59 61 61 61 62 61 61 61 62
34 35 34 34 35 35 37 38 41 43 45 48 37 40 60 61 65 65 65 63 62 61 61 62 62 61 60 59 60 58 56 54 53 55 58 60 61 61 61 60 60 60 60
34 35 33 33 34 35 36 38 41 43 45 49 42 35 55 60 63 65 65 64 63 62 61 62 62 61 61 60 59 58 57 58 57 55 54 57 60 61 61 60 60 60 61
34 34 33 33 34 34 35 37 40 43 47 49 46 36 54 59 60 64 64 64 63 63 62 62 62 61 61 60 61 59 58 57 56 55 54 55 56 58 60 60 60 60 60
Wind_Speed
13 16 17 14 12 12 12 11 10 11 13 12 11 10 9 9 9 9 9 10 9 9 9 9 9 7 5 5 8 11 17 19 20 19 18 20 18 20 18 18 18 19 9
6 14 14 15 11 9 10 11 10 10 13 13 11 12 11 10 9 8 8 8 8 8 8 8 7 7 6 7 9 11 17 18 17 20 18 20 22 17 20 20 21 15 9
6 15 12 12 9 8 8 9 9 9 12 13 13 13 13 11 10 9 8 9 8 9 8 7 7 8 7 9 12 15 17 20 22 23 21 15 16 16 19 16 23 16 14
3 17 13 11 9 9 9 7 7 7 10 12 13 13 14 13 12 10 10 9 8 7 6 6 8 8 9 10 14 17 17 19 19 20 16 17 15 15 19 18 22 19 19
3 15 17 14 9 8 8 8 7 6 7 9 11 13 13 13 12 11 11 10 8 7 6 6 7 9 11 13 15 17 18 20 18 15 10 16 15 17 19 19 19 21 20
6 18 20 18 12 7 7 6 6 5 6 8 9 10 12 13 13 12 11 10 9 8 7 6 7 10 13 14 16 17 19 19 13 9 14 16 11 16 19 17 20 22 21
11 18 15 15 12 9 8 7 6 5 5 6 8 10 10 11 12 11 12 11 9 8 7 7 9 12 13 15 16 17 19 17 12 5 13 13 14 19 18 17 22 21 21
11 16 14 11 11 9 7 7 6 6 6 5 6 8 10 9 10 11 10 10 10 8 7 8 10 12 13 14 14 16 17 13 11 15 9 11 13 19 19 22 23 22 21
5 6 12 12 8 7 7 6 6 6 7 7 6 6 7 8 8 9 10 9 9 8 7 9 11 12 13 14 13 11 13 7 13 5 13 15 13 19 20 22 22 21 20
5 2 2 13 11 9 8 7 7 7 7 7 8 7 7 7 8 7 8 8 9 8 8 9 10 11 12 13 14 14 14 11 13 22 12 16 22 22 22 22 21 21 20
10 2 2 3 13 12 11 12 10 9 9 9 9 10 9 9 11 11 10 10 10 9 9 11 11 11 12 11 14 14 11 12 10 17 16 22 22 22 21 21 20 20 20
13 14 1 5 4 7 8 13 12 11 11 12 12 12 10 12 12 14 15 12 10 9 10 10 12 13 12 8 8 7 8 3 9 13 15 24 22 22 22 21 20 20 20
19 17 14 8 8 7 9 9 8 10 12 13 15 14 14 12 11 12 10 11 10 9 9 9 9 10 12 11 12 10 9 3 4 10 15 25 23 22 22 22 21 20 19
17 17 20 21 17 6 8 9 11 13 13 12 15 16 13 12 11 10 13 14 13 13 14 14 12 13 14 13 12 14 11 6 7 10 15 22 24 23 21 22 20 18 16
13 14 14 17 20 17 11 12 11 13 11 12 13 18 16 14 14 13 13 16 16 16 16 15 14 14 12 11 10 10 10 6 11 13 14 13 19 21 20 20 19 18 17
17 17 19 20 18 21 18 17 15 12 12 15 13 14 19 16 15 15 15 14 16 15 16 16 15 14 13 11 9 10 9 7 13 15 13 14 16 19 19 19 18 18 18
22 24 25 25 27 25 29 21 19 17 15 15 18 18 17 19 18 18 17 14 14 15 16 17 15 15 14 12 11 8 8 9 9 17 16 12 12 17 20 20 19 20 20
32 31 30 29 29 27 27 27 21 19 20 19 19 20 23 21 22 17 16 16 14 14 14 15 16 17 15 14 14 13 12 11 11 13 15 13 12 12 15 18 19 19 20
28 31 31 27 26 29 27 28 29 23 21 22 22 22 25 26 25 19 18 16 19 13 15 15 16 16 15 14 16 13 14 10 12 13 15 16 14 11 12 15 17 19 19
31 30 34 38 30 26 25 27 27 25 24 24 23 26 27 28 30 24 20 17 20 15 15 15 17 15 15 14 11 10 7 2 7 9 14 15 15 12 12 13 14 14 18
26 28 28 33 33 30 28 26 27 27 25 24 26 27 30 29 32 29 21 21 22 19 18 19 16 19 15 15 13 8 4 4 1 8 11 15 15 17 15 13 13 12 14
25 26 28 29 29 30 28 27 28 30 31 25 25 31 31 36 34 32 29 26 25 23 21 23 23 16 15 18 10 11 5 4 7 8 8 12 14 14 15 14 12 13 13
26 27 28 31 32 30 29 28 28 29 29 30 25 28 35 33 38 36 33 27 26 26 25 26 25 24 21 18 20 9 7 9 10 11 16 13 15 14 14 14 14 14 14
27 26 27 29 31 31 27 28 31 31 32 30 27 29 31 35 49 46 37 33 28 27 27 26 24 24 23 23 18 17 11 9 6 6 12 16 15 17 17 15 17 17 17
27 28 29 31 30 31 30 29 31 33 31 30 30 32 37 39 30 33 35 36 30 30 28 29 28 25 24 21 23 21 17 15 7 5 7 12 12 15 15 16 16 16 18
27 28 30 31 32 31 30 32 33 35 36 33 34 25 33 36 29 32 36 32 28 30 28 29 30 29 25 21 21 22 20 18 14 9 4 16 19 14 17 14 16 16 17
Wind_Direction
73 136 129 126 133 131 128 128 139 147 144 143 141 135 128 121 119 119 117 114 118 120 125 131 130 136 121 94 89 98 112 116 124 125 135 129 114 105 105 99 95 97 105
75 136 133 134 138 139 132 126 133 144 148 149 149 144 143 142 141 136 134 132 135 140 143 150 152 156 142 119 120 120 117 120 118 119 121 117 113 118 117 111 100 99 150
69 128 137 132 133 129 124 126 130 143 153 155 157 155 152 154 153 151 152 150 158 159 144 154 164 163 151 138 135 127 124 128 131 133 132 121 124 134 128 127 122 148 151
311 122 137 136 140 135 142 133 125 140 155 161 161 160 159 159 162 163 169 167 174 145 147 169 176 172 151 135 137 136 136 140 149 152 145 135 135 146 133 150 145 158 139
6 123 129 137 143 156 149 143 139 143 147 159 166 165 164 162 165 173 176 176 174 155 176 171 174 172 153 149 148 149 151 161 171 172 132 135 139 152 137 157 147 137 121
10 88 135 145 151 154 151 154 141 142 155 162 166 169 168 172 174 176 180 182 178 178 190 156 157 152 154 157 159 164 170 176 172 202 142 133 139 144 136 150 136 129 117
32 106 123 134 143 155 161 166 156 160 163 166 169 170 187 183 176 175 181 182 189 189 195 160 155 158 158 167 174 177 180 184 173 146 132 102 133 133 140 138 124 121 118
344 113 123 131 141 150 164 166 166 164 159 166 171 178 179 191 180 174 181 184 187 186 186 164 166 166 168 176 181 187 194 188 67 40 301 118 137 137 142 133 127 119 120
68 350 124 134 144 146 161 171 171 166 161 159 163 178 181 177 186 183 184 189 185 185 169 168 177 172 173 177 178 185 199 172 108 150 238 121 143 138 142 132 127 126 125
75 101 281 146 158 168 171 182 178 172 169 162 161 173 174 182 181 201 206 195 188 190 174 173 179 181 181 182 180 182 207 197 167 181 176 151 160 148 143 135 134 130 129
31 97 194 216 166 178 186 175 184 183 175 171 169 173 183 200 188 187 212 206 194 186 184 183 177 186 186 188 183 195 211 236 189 158 154 157 151 146 142 139 138 137 139
12 7 293 182 239 175 213 150 186 197 196 184 188 178 202 216 196 198 195 184 191 188 186 187 183 187 183 178 187 185 213 295 75 229 144 157 149 150 147 144 143 141 140
353 357 352 333 191 201 209 194 200 209 207 196 194 190 191 214 235 193 150 159 172 187 187 181 180 193 212 194 176 172 202 113 156 34 147 157 156 157 154 152 148 148 144
355 353 360 353 358 260 228 220 204 223 203 205 193 194 197 207 214 214 171 178 182 183 208 185 190 203 212 218 182 181 164 160 140 141 202 159 160 158 160 158 156 156 151
358 1 346 345 341 333 276 236 255 227 189 227 206 190 194 205 204 214 229 176 186 190 201 189 188 196 195 204 197 161 172 164 127 136 153 177 165 160 163 163 160 161 162
356 4 3 354 341 329 318 306 244 252 219 202 240 200 198 203 196 207 225 193 195 187 195 185 179 175 180 196 198 188 161 162 121 139 151 161 174 165 167 172 173 171 173
357 3 3 352 344 336 325 310 311 235 228 213 208 221 209 207 214 205 205 217 208 203 188 177 170 158 179 190 193 197 173 159 150 145 160 170 169 177 179 179 181 178 176
359 356 349 345 338 326 318 307 297 289 239 220 212 208 213 212 219 215 197 201 213 208 164 167 156 172 186 191 195 190 185 169 171 164 165 165 170 178 184 185 187 187 183
353 350 342 338 333 327 323 313 294 278 277 243 215 211 207 208 216 228 207 194 198 209 181 162 171 165 178 199 205 196 168 177 188 179 171 165 163 176 184 193 188 193 195
351 348 337 328 325 317 313 308 300 269 270 274 243 212 203 206 206 217 208 199 191 198 183 173 169 173 177 193 189 136 138 157 186 209 184 167 163 185 193 191 193 184 191
344 332 333 323 321 322 317 307 302 298 255 259 256 247 203 200 205 203 209 201 187 195 188 174 170 173 175 192 119 105 76 35 268 213 209 192 181 181 194 193 191 190 203
336 332 330 320 313 314 306 299 293 292 289 247 253 242 249 193 200 202 199 200 188 192 189 176 176 178 184 188 160 132 160 232 244 230 197 202 186 178 186 186 193 186 188
336 332 328 316 314 308 303 297 290 288 275 256 231 240 239 228 194 201 196 195 191 187 191 180 180 182 181 187 167 155 161 205 176 197 213 205 200 191 190 188 204 201 193
333 328 325 315 312 307 307 298 289 283 277 275 234 242 234 234 209 185 192 193 191 189 189 179 182 186 183 184 182 202 220 173 152 155 204 208 199 193 193 195 206 205 201
332 329 328 317 314 313 307 299 289 279 272 266 257 226 234 242 243 186 194 188 190 191 190 183 181 186 193 179 189 191 216 250 231 168 172 188 197 202 202 199 200 203 202
334 328 327 320 320 316 311 303 293 281 277 266 267 245 224 234 206 206 203 188 193 188 191 184 183 186 195 189 182 192 199 217 210 210 165 183 198 204 199 203 205 204 199